Location: Newark
(49.8348°N, 24.0280°E)
Time: 00:59:34
(UTC+00:00)

deb Explorer IX - Pass Details

Date: 30 January 2020
Orbit: 549 x 1099 km, 38.8° (Epoch: 20 February)

Event Time Altitude Azimuth Distance (km) Brightness Sun altitude
Rises 17:35:45 0° 211° (SSW) 3,465 ? -22.8°
Reaches altitude 10° 17:38:58 10° 193° (SSW) 2,631 ? -23.3°
Enters shadow 17:42:54 19° 155° (SSE) 2,180 ? -23.9°
